Location: B�di�
(14.6834°N, 3.1047°W)
Time: 14:22:49
(UTC+00:00)

BREEZE-M DEB (TANK) - Pass Details

Date: 24 January 2020
Orbit: 374 x 34437 km, 46.2° (Epoch: 26 February)

Event Time Altitude Azimuth Distance (km) Brightness Sun altitude
Rises 19:48:15 0° 316° (NW) 9,517 9.5 -24.2°
Reaches altitude 10° 19:58:00 10° 320° (NW) 5,416 8.1 -26.5°
Enters shadow 20:06:50 43° 354° (N) 1,292 4.5 -28.5°
